Kozani, Greece

3:19 AM EEST on May 30, 2017 (GMT +0300)
Kozani

Weather History for LGKZ - October, 2011

Change the Weather History Date:

Friday, October 7, 2011

  Actual Average Record
Temperature  
Mean Temperature 63 °F -  
Max Temperature 75 °F - - ()
Min Temperature 51 °F - - ()
Degree Days  
Heating Degree Days 2    
Growing Degree Days 13 (Base 50)    
Moisture  
Dew Point 42 °F    
Average Humidity 53    
Maximum Humidity 67    
Minimum Humidity 25    
Precipitation  
Precipitation 0.00 in - - ()
Sea Level Pressure  
Sea Level Pressure 29.99 in    
Wind  
Wind Speed 4 mph ()    
Max Wind Speed 15 mph    
Max Gust Speed -    
Visibility 6.2 miles    
Events      
T = Trace of Precipitation, MM = Missing Value Source: Averaged Metar Reports

Daily Weather History Graph

Daily Weather History Graph

Search for Another Location

Airport or City:

Trip Planner

Search our weather history database for the weather conditions in past years. The results will help you decide how hot, cold, wet, or windy it might be!

Date:

Astronomy

Oct. 07, 2011 Rise Set
Actual Time 7:34 AM EEST 7:06 PM EEST
Civil Twilight 7:07 AM EEST 7:33 PM EEST
Nautical Twilight 6:36 AM EEST 8:04 PM EEST
Astronomical Twilight 6:04 AM EEST 8:36 PM EEST
Moon 4:40 PM EEST (10/7) 3:04 AM EEST (10/7)
Length of Visible Light 12h 25m
Length of Day
11h 31m
Waxing Gibbous, 81% of the Moon is Illuminated
Oct 7
Waxing Gibbous
Oct 12
Full
Oct 20
Last Quarter
Oct 26
New
Nov 2
First Quarter

Hourly Weather History & Observations

Time (EEST) Temp. Dew Point Humidity Pressure Visibility Wind Dir Wind Speed Gust Speed Precip Events Conditions
12:20 AM 59.0 °F 39.2 °F 48% 30.09 in - North 5.8 mph - N/A   Unknown
12:50 AM 57.2 °F 39.2 °F 51% 30.09 in - NNW 5.8 mph - N/A   Unknown
1:20 AM 55.4 °F 39.2 °F 54% 30.09 in - North 5.8 mph - N/A   Unknown
1:50 AM 55.4 °F 39.2 °F 54% 30.06 in - North 5.8 mph - N/A   Unknown
2:20 AM 55.4 °F 39.2 °F 54% 30.06 in - North 5.8 mph - N/A   Unknown
2:50 AM 57.2 °F 39.2 °F 51% 30.06 in - NNW 5.8 mph - N/A   Unknown
3:20 AM 53.6 °F 39.2 °F 58% 30.06 in - NNW 4.6 mph - N/A   Unknown
3:50 AM 55.4 °F 39.2 °F 54% 30.06 in - NNW 5.8 mph - N/A   Unknown
4:20 AM 53.6 °F 39.2 °F 58% 30.04 in - NNW 5.8 mph - N/A   Unknown
4:50 AM 53.6 °F 39.2 °F 58% 30.04 in - North 4.6 mph - N/A   Unknown
5:20 AM 53.6 °F 41.0 °F 62% 30.04 in - Variable 3.5 mph - N/A   Unknown
5:50 AM 51.8 °F 39.2 °F 62% 30.04 in - Variable 2.3 mph - N/A   Unknown
6:20 AM 51.8 °F 41.0 °F 67% 30.04 in - Variable 2.3 mph - N/A   Unknown
6:50 AM 51.8 °F 41.0 °F 67% 30.04 in - NNW 5.8 mph - N/A   Unknown
7:20 AM 51.8 °F 41.0 °F 67% 30.04 in - Variable 3.5 mph - N/A   Unknown
7:50 AM 51.8 °F 41.0 °F 67% 30.04 in - Calm Calm - N/A   Clear
8:50 AM 57.2 °F 44.6 °F 63% 30.04 in - Calm Calm - N/A   Clear
9:50 AM 64.4 °F 44.6 °F 49% 30.04 in - Calm Calm - N/A   Clear
10:50 AM 66.2 °F 46.4 °F 49% 30.04 in - Calm Calm - N/A   Clear
11:50 AM 68.0 °F 46.4 °F 46% 30.01 in - ENE 6.9 mph - N/A   Clear
12:50 PM 71.6 °F 42.8 °F 35% 29.98 in - Calm Calm - N/A   Clear
1:50 PM 73.4 °F 39.2 °F 29% 29.98 in 6.2 mi Calm Calm - N/A   Partly Cloudy
2:50 PM 75.2 °F 37.4 °F 25% 29.95 in 6.2 mi SW 8.1 mph - N/A   Partly Cloudy
3:50 PM 75.2 °F 39.2 °F 27% 29.92 in 6.2 mi West 10.4 mph - N/A   Scattered Clouds
4:50 PM 73.4 °F 39.2 °F 29% 29.89 in 6.2 mi WSW 10.4 mph - N/A   Scattered Clouds
5:50 PM 68.0 °F 44.6 °F 43% 29.92 in 6.2 mi West 15.0 mph - N/A   Mostly Cloudy
6:50 PM 66.2 °F 44.6 °F 46% 29.89 in 6.2 mi West 6.9 mph - N/A   Mostly Cloudy
7:50 PM 62.6 °F 44.6 °F 52% 29.89 in 6.2 mi Calm Calm - N/A   Mostly Cloudy
8:50 PM 59.0 °F 44.6 °F 59% 29.89 in 6.2 mi Calm Calm - N/A   Scattered Clouds
9:20 PM 59.0 °F 44.6 °F 59% 29.89 in - North 5.8 mph - N/A   Unknown
9:50 PM 57.2 °F 44.6 °F 63% 29.89 in - Variable 3.5 mph - N/A   Unknown
10:20 PM 57.2 °F 44.6 °F 63% 29.89 in - North 4.6 mph - N/A   Unknown
10:50 PM 57.2 °F 44.6 °F 63% 29.89 in - North 4.6 mph - N/A   Unknown
11:20 PM 55.4 °F 44.6 °F 67% 29.89 in - North 4.6 mph - N/A   Unknown
11:50 PM 55.4 °F 44.6 °F 67% 29.89 in - North 4.6 mph - N/A   Unknown